Regional Weather Roundup
Issued by NWS Cleveland, OH

Home | Current Version | Previous Version | Text Only | Print | Product List | Glossary On
Versions: 1 2 3 4 5 6 7 8 9 10 11 12 13 14 15 16 17 18 19 20 21 22 23 24 25 26 27 28 29 30 31 32 33 34 35 36 37 38 39 40 41 42 43 44 45 46 47 48 49 50
000
ASUS41 KCLE 280012
RWRCLE
OHIO REGIONAL WEATHER ROUNDUP
NATIONAL WEATHER SERVICE WILMINGTON, OH
800 PM EDT FRI MAY 27 2016

NOTE: "FAIR" INDICATES FEW OR NO CLOUDS BELOW 12,000 FEET WITH NO
SIGNIFICANT WEATHER AND/OR OBSTRUCTIONS TO VISIBILITY.

OHZ001>008-015>018-024>027-034-035-043-044-280100-
   NORTHWEST OHIO

CITY           SKY/WX    TMP DP  RH WIND       PRES   REMARKS
DEFIANCE       FAIR      86  59  39 S7        29.92S
FINDLAY        FAIR      85  58  39 S10       29.93S
TOLEDO EXPRESS FAIR      81  62  52 CALM      29.92S
TOLEDO EXEC    FAIR      81  63  54 NE6       29.94R
LIMA           FAIR      83  59  44 S12       29.95R
$$

OHZ009>014-019>023-028>033-038-089-280100-
   NORTHEAST OHIO

CITY           SKY/WX    TMP DP  RH WIND       PRES   REMARKS
CLE-HOPKINS    CLOUDY    82  63  52 NE6       30.00R
CLE-LAKEFRONT  FAIR      72  63  73 NE9       29.97S
CUY CO. ARPT   MOCLDY    84  68  58 NE6       29.99S
LORAIN-ELYRIA  FAIR      83  62  49 S6        29.98R
ASHTABULA      FAIR      78  62  57 E3        30.01S
AKRON-CANTON   FAIR      79  64  60 SW5       30.01R
WOOSTER        FAIR      82  62  50 S5        30.01R
MANSFIELD      FAIR      81  63  54 SE8       30.00S
YOUNGSTOWN     CLOUDY    80  62  54 SW5       30.02R
$$

OHZ042-051>053-060>062-070>072-077>081-280100-
  SOUTHWEST OHIO

CITY           SKY/WX    TMP DP  RH WIND       PRES   REMARKS
CINC-COVINGTON MOCLDY    81  67  62 S7        29.98R
CINC-LUNKEN    FAIR      80  69  69 SE5       29.97R
HAMILTON       FAIR      84  63  49 S6        29.97R
DAYTON         MOCLDY    82  60  47 S12       29.98S
WRIGHT-PAT AFB MOCLDY    82  63  52 S9        29.97R
DAYTON GENERAL FAIR      81  62  52 S9        29.97S
WILMINGTON     FAIR      80  64  58 S7        29.99R
$$

OHZ036-037-039>041-045>050-054>059-063>069-073>076-082>088-280100-
  CENTRAL AND SOUTHEAST OHIO

CITY           SKY/WX    TMP DP  RH WIND       PRES   REMARKS
COLUMBUS       MOCLDY    84  61  45 S6        29.98R
OSU AIRPORT    NOT AVBL
BOLTON FIELD   FAIR      82  64  54 S8        29.99R
RICKENBACK AFB FAIR      83  63  51 S7        29.98R
NEWARK         FAIR      85  63  47 S7        29.99R
MARION         FAIR      83  60  45 SW10      29.98R
LANCASTER      FAIR      82  64  54 S3        30.00R
ZANESVILLE     FAIR      83  66  56 S5        30.00S
NEW PHILLY     FAIR      84  64  50 CALM      30.01R
$$




USA.gov is the U.S. government's official web portal to all federal, state and local government web resources and services.